Year,Month,Day,Hour,Minute,Value (Times are PST for barometer in hPa)
2013,09,30,00,00,984.43
2013,09,30,00,05,984.49
2013,09,30,00,06,984.47
2013,09,30,00,07,984.71
2013,09,30,00,08,984.58
2013,09,30,00,09,984.72
2013,09,30,00,10,984.49
2013,09,30,00,11,984.55
2013,09,30,00,12,984.71
2013,09,30,00,13,984.53
2013,09,30,00,14,984.51
2013,09,30,00,15,984.65
2013,09,30,00,16,984.60
2013,09,30,00,17,984.69
2013,09,30,00,18,984.73
2013,09,30,00,19,984.69
2013,09,30,00,20,984.69
2013,09,30,00,21,984.70
2013,09,30,00,22,984.78
2013,09,30,00,23,984.92
2013,09,30,00,24,984.76
2013,09,30,00,25,984.71
2013,09,30,00,26,985.05
2013,09,30,00,27,984.77
2013,09,30,00,28,984.88
2013,09,30,00,29,985.03
2013,09,30,00,30,985.02
2013,09,30,00,31,984.89
2013,09,30,00,32,984.82
2013,09,30,00,33,985.02
2013,09,30,00,34,984.98
2013,09,30,00,35,985.07
2013,09,30,00,36,985.00
2013,09,30,00,37,985.03
2013,09,30,00,38,985.03
2013,09,30,00,39,985.07
2013,09,30,00,40,985.10
2013,09,30,00,41,985.10
2013,09,30,00,42,985.03
2013,09,30,00,43,985.10
2013,09,30,00,44,985.16
2013,09,30,00,45,985.10
2013,09,30,00,46,985.20
2013,09,30,00,47,985.26
2013,09,30,00,48,985.13
2013,09,30,00,49,985.10
2013,09,30,00,50,985.07
2013,09,30,00,51,985.08
2013,09,30,00,52,985.27
2013,09,30,00,53,985.23
2013,09,30,00,54,985.14
2013,09,30,00,55,985.37
2013,09,30,00,56,985.28
2013,09,30,00,57,985.11
2013,09,30,00,58,985.18
2013,09,30,00,59,985.25
2013,09,30,01,00,985.36
2013,09,30,01,01,985.16
2013,09,30,01,02,985.40
2013,09,30,01,03,985.23
2013,09,30,01,04,985.15
2013,09,30,01,05,985.30
2013,09,30,01,06,985.28
2013,09,30,01,07,985.47
2013,09,30,01,08,985.47
2013,09,30,01,09,985.51
2013,09,30,01,10,985.46
2013,09,30,01,11,985.29
2013,09,30,01,12,985.61
2013,09,30,01,13,985.21
2013,09,30,01,14,985.57
2013,09,30,01,15,985.61
2013,09,30,01,16,985.63
2013,09,30,01,17,985.52
2013,09,30,01,18,985.64
2013,09,30,01,19,985.63
2013,09,30,01,20,985.45
2013,09,30,01,21,985.32
2013,09,30,01,22,985.47
2013,09,30,01,23,985.51
2013,09,30,01,24,985.51
2013,09,30,01,25,985.47
2013,09,30,01,26,985.57
2013,09,30,01,27,985.57
2013,09,30,01,28,985.61
2013,09,30,01,29,985.61
2013,09,30,01,30,985.68
2013,09,30,01,31,985.75
2013,09,30,01,32,985.89
2013,09,30,01,33,985.75
2013,09,30,01,34,985.85
2013,09,30,01,35,985.81
2013,09,30,01,36,985.83
2013,09,30,01,37,986.04
2013,09,30,01,38,985.91
2013,09,30,01,39,985.91
2013,09,30,01,40,985.91
2013,09,30,01,41,985.98
2013,09,30,01,42,985.96
2013,09,30,01,43,986.02
2013,09,30,01,44,986.02
2013,09,30,01,45,986.06
2013,09,30,01,46,986.15
2013,09,30,01,47,986.15
2013,09,30,01,48,986.12
2013,09,30,01,49,986.22
2013,09,30,01,50,986.18
2013,09,30,01,51,986.18
2013,09,30,01,52,986.25
2013,09,30,01,53,986.19
2013,09,30,01,54,986.25
2013,09,30,01,55,986.30
2013,09,30,01,56,986.42
2013,09,30,01,57,986.46
2013,09,30,01,58,986.50
2013,09,30,01,59,986.59
2013,09,30,02,00,986.66
2013,09,30,02,01,986.57
2013,09,30,02,02,986.62
2013,09,30,02,03,986.62
2013,09,30,02,04,986.70
2013,09,30,02,05,986.80
2013,09,30,02,06,986.89
2013,09,30,02,07,986.72
2013,09,30,02,08,986.66
2013,09,30,02,09,986.73
2013,09,30,02,10,986.76
2013,09,30,02,11,986.70
2013,09,30,02,12,986.83
2013,09,30,02,13,986.76
2013,09,30,02,14,986.66
2013,09,30,02,15,986.77
2013,09,30,02,16,986.93
2013,09,30,02,17,986.90
2013,09,30,02,18,986.96
2013,09,30,02,19,986.93
2013,09,30,02,20,986.93
2013,09,30,02,21,986.91
2013,09,30,02,22,987.07
2013,09,30,02,23,987.17
2013,09,30,02,24,987.17
2013,09,30,02,25,987.17
2013,09,30,02,26,987.23
2013,09,30,02,27,987.17
2013,09,30,02,28,987.18
2013,09,30,02,29,987.23
2013,09,30,02,30,987.28
2013,09,30,02,31,987.40
2013,09,30,02,32,987.36
2013,09,30,02,33,987.27
2013,09,30,02,34,987.35
2013,09,30,02,35,987.48
2013,09,30,02,36,987.55
2013,09,30,02,37,987.61
2013,09,30,02,38,987.57
2013,09,30,02,39,987.57
2013,09,30,02,40,987.61
2013,09,30,02,41,987.67
2013,09,30,02,42,987.74
2013,09,30,02,43,987.78
2013,09,30,02,44,987.81
2013,09,30,02,45,987.88
2013,09,30,02,46,987.88
2013,09,30,02,47,987.91
2013,09,30,02,48,987.91
2013,09,30,02,49,987.95
2013,09,30,02,50,987.92
2013,09,30,02,51,987.98
2013,09,30,02,52,987.95
2013,09,30,02,53,987.96
2013,09,30,02,54,988.05
2013,09,30,02,55,988.09
2013,09,30,02,56,988.28
2013,09,30,02,57,988.28
2013,09,30,02,58,988.25
2013,09,30,02,59,988.25
2013,09,30,03,00,988.32
2013,09,30,03,01,988.35
2013,09,30,03,02,988.39
2013,09,30,03,03,988.39
2013,09,30,03,04,988.39
2013,09,30,03,05,988.40
2013,09,30,03,06,988.49
2013,09,30,03,07,988.49
2013,09,30,03,08,988.52
2013,09,30,03,09,988.54
2013,09,30,03,10,988.49
2013,09,30,03,11,988.59
2013,09,30,03,12,988.69
2013,09,30,03,13,988.66
2013,09,30,03,14,988.66
2013,09,30,03,15,988.69
2013,09,30,03,16,988.67
2013,09,30,03,17,988.72
2013,09,30,03,18,988.72
2013,09,30,03,19,988.69
2013,09,30,03,20,988.73
2013,09,30,03,21,988.83
2013,09,30,03,22,988.72
2013,09,30,03,23,988.69
2013,09,30,03,24,988.72
2013,09,30,03,25,988.73
2013,09,30,03,26,988.83
2013,09,30,03,27,988.83
2013,09,30,03,28,988.83
2013,09,30,03,29,988.77
2013,09,30,03,30,988.86
2013,09,30,03,31,988.86
2013,09,30,03,32,988.89
2013,09,30,03,33,988.96
2013,09,30,03,34,988.96
2013,09,30,03,35,989.00
2013,09,30,03,36,988.93
2013,09,30,03,37,989.00
2013,09,30,03,38,989.00
2013,09,30,03,39,988.96
2013,09,30,03,40,989.00
2013,09,30,03,41,988.96
2013,09,30,03,42,989.03
2013,09,30,03,43,989.03
2013,09,30,03,44,989.06
2013,09,30,03,45,989.13
2013,09,30,03,46,989.13
2013,09,30,03,47,989.17
2013,09,30,03,48,989.30
2013,09,30,03,49,989.30
2013,09,30,03,50,989.38
2013,09,30,03,51,989.49
2013,09,30,03,52,989.37
2013,09,30,03,53,989.44
2013,09,30,03,54,989.47
2013,09,30,03,55,989.45
2013,09,30,03,56,989.53
2013,09,30,03,57,989.44
2013,09,30,03,58,989.49
2013,09,30,03,59,989.81
2013,09,30,04,00,989.73
2013,09,30,04,01,989.57
2013,09,30,04,02,989.64
2013,09,30,04,03,989.67
2013,09,30,04,04,989.71
2013,09,30,04,05,989.77
2013,09,30,04,06,989.78
2013,09,30,04,07,989.87
2013,09,30,04,08,989.74
2013,09,30,04,09,989.81
2013,09,30,04,10,989.81
2013,09,30,04,11,989.75
2013,09,30,04,12,989.88
2013,09,30,04,13,989.89
2013,09,30,04,14,990.04
2013,09,30,04,15,990.04
2013,09,30,04,16,990.15
2013,09,30,04,17,990.21
2013,09,30,04,18,990.18
2013,09,30,04,19,990.28
2013,09,30,04,20,990.38
2013,09,30,04,21,990.42
2013,09,30,04,22,990.41
2013,09,30,04,23,990.28
2013,09,30,04,24,990.35
2013,09,30,04,25,990.42
2013,09,30,04,26,990.38
2013,09,30,04,27,990.45
2013,09,30,04,28,990.41
2013,09,30,04,29,990.28
2013,09,30,04,30,990.35
2013,09,30,04,31,990.45
2013,09,30,04,32,990.52
2013,09,30,04,33,990.59
2013,09,30,04,34,990.49
2013,09,30,04,35,990.56
2013,09,30,04,36,990.72
2013,09,30,04,37,990.79
2013,09,30,04,38,990.79
2013,09,30,04,39,990.72
2013,09,30,04,40,990.79
2013,09,30,04,41,990.82
2013,09,30,04,42,990.87
2013,09,30,04,43,991.06
2013,09,30,04,44,991.06
2013,09,30,04,45,991.05
2013,09,30,04,46,990.97
2013,09,30,04,47,991.13
2013,09,30,04,48,991.06
2013,09,30,04,49,991.14
2013,09,30,04,50,991.23
2013,09,30,04,51,991.20
2013,09,30,04,52,991.26
2013,09,30,04,53,991.26
2013,09,30,04,54,991.27
2013,09,30,04,55,991.37
2013,09,30,04,56,991.40
2013,09,30,04,57,991.40
2013,09,30,04,58,991.43
2013,09,30,04,59,991.47
2013,09,30,05,00,991.43
2013,09,30,05,01,991.41
2013,09,30,05,02,991.54
2013,09,30,05,03,991.84
2013,09,30,05,04,991.73
2013,09,30,05,05,991.60
2013,09,30,05,06,991.65
2013,09,30,05,07,991.81
2013,09,30,05,08,991.80
2013,09,30,05,09,991.64
2013,09,30,05,10,991.60
2013,09,30,05,11,991.64
2013,09,30,05,12,991.61
2013,09,30,05,13,991.84
2013,09,30,05,14,991.97
2013,09,30,05,15,991.86
2013,09,30,05,16,991.70
2013,09,30,05,17,991.68
2013,09,30,05,18,991.84
2013,09,30,05,19,991.87
2013,09,30,05,20,991.83
2013,09,30,05,21,991.71
2013,09,30,05,22,991.87
2013,09,30,05,23,991.94
2013,09,30,05,24,991.92
2013,09,30,05,25,992.04
2013,09,30,05,26,992.01
2013,09,30,05,27,992.04
2013,09,30,05,28,992.01
2013,09,30,05,29,991.94
2013,09,30,05,30,991.88
2013,09,30,05,31,992.04
2013,09,30,05,32,992.01
2013,09,30,05,33,992.01
2013,09,30,05,34,992.04
2013,09,30,05,35,992.05
2013,09,30,05,36,992.18
2013,09,30,05,37,992.22
2013,09,30,05,38,992.38
2013,09,30,05,39,992.42
2013,09,30,05,40,992.48
2013,09,30,05,41,992.43
2013,09,30,05,42,992.55
2013,09,30,05,43,992.55
2013,09,30,05,44,992.58
2013,09,30,05,45,992.62
2013,09,30,05,46,992.58
2013,09,30,05,47,992.65
2013,09,30,05,48,992.62
2013,09,30,05,49,992.61
2013,09,30,05,50,992.52
2013,09,30,05,51,992.58
2013,09,30,05,52,992.59
2013,09,30,05,53,992.69
2013,09,30,05,54,992.69
2013,09,30,05,55,992.75
2013,09,30,05,56,992.72
2013,09,30,05,57,992.82
2013,09,30,05,58,992.79
2013,09,30,05,59,992.79
2013,09,30,06,00,992.82
2013,09,30,06,01,992.89
2013,09,30,06,02,992.89
2013,09,30,06,03,992.86
2013,09,30,06,04,992.92
2013,09,30,06,05,992.89
2013,09,30,06,06,992.92
2013,09,30,06,07,992.99
2013,09,30,06,08,993.03
2013,09,30,06,09,992.99
2013,09,30,06,10,993.03
2013,09,30,06,11,993.13
2013,09,30,06,12,993.19
2013,09,30,06,13,993.16
2013,09,30,06,14,993.19
2013,09,30,06,15,993.19
2013,09,30,06,16,993.23
2013,09,30,06,17,993.30
2013,09,30,06,18,993.33
2013,09,30,06,19,993.33
2013,09,30,06,20,993.34
2013,09,30,06,21,993.53
2013,09,30,06,22,993.43
2013,09,30,06,23,993.50
2013,09,30,06,24,993.57
2013,09,30,06,25,993.60
2013,09,30,06,26,993.70
2013,09,30,06,27,993.77
2013,09,30,06,28,993.84
2013,09,30,06,29,993.91
2013,09,30,06,30,993.91
2013,09,30,06,31,993.88
2013,09,30,06,32,994.03
2013,09,30,06,33,993.91
2013,09,30,06,34,993.94
2013,09,30,06,35,993.92
2013,09,30,06,36,994.07
2013,09,30,06,37,994.04
2013,09,30,06,38,994.04
2013,09,30,06,39,994.04
2013,09,30,06,40,994.01
2013,09,30,06,41,994.04
2013,09,30,06,42,994.04
2013,09,30,06,43,994.07
2013,09,30,06,44,994.14
2013,09,30,06,45,994.04
2013,09,30,06,46,994.14
2013,09,30,06,47,994.14
2013,09,30,06,48,994.14
2013,09,30,06,49,994.18
2013,09,30,06,50,994.18
2013,09,30,06,51,994.18
2013,09,30,06,52,994.21
2013,09,30,06,53,994.14
2013,09,30,06,54,994.21
2013,09,30,06,55,994.24
2013,09,30,06,56,994.31
2013,09,30,06,57,994.28
2013,09,30,06,58,994.35
2013,09,30,06,59,994.31
2013,09,30,07,00,994.38
2013,09,30,07,01,994.47
2013,09,30,07,02,994.38
2013,09,30,07,03,994.41
2013,09,30,07,04,994.41
2013,09,30,07,05,994.41
2013,09,30,07,06,994.47
2013,09,30,07,07,994.39
2013,09,30,07,08,994.55
2013,09,30,07,09,994.48
2013,09,30,07,10,994.58
2013,09,30,07,11,994.52
2013,09,30,07,12,994.58
2013,09,30,07,13,994.52
2013,09,30,07,14,994.58
2013,09,30,07,15,994.62
2013,09,30,07,16,994.62
2013,09,30,07,17,994.55
2013,09,30,07,18,994.58
2013,09,30,07,19,994.62
2013,09,30,07,20,994.59
2013,09,30,07,21,994.68
2013,09,30,07,22,994.65
2013,09,30,07,23,994.72
2013,09,30,07,24,994.79
2013,09,30,07,25,994.75
2013,09,30,07,26,994.79
2013,09,30,07,27,994.72
2013,09,30,07,28,994.72
2013,09,30,07,29,994.72
2013,09,30,07,30,994.75
2013,09,30,07,31,994.79
2013,09,30,07,32,994.85
2013,09,30,07,33,994.92
2013,09,30,07,34,994.92
2013,09,30,07,35,995.02
2013,09,30,07,36,995.09
2013,09,30,07,37,995.12
2013,09,30,07,38,995.12
2013,09,30,07,39,995.23
2013,09,30,07,40,995.16
2013,09,30,07,41,995.19
2013,09,30,07,42,995.23
2013,09,30,07,43,995.26
2013,09,30,07,44,995.23
2013,09,30,07,45,995.19
2013,09,30,07,46,995.23
2013,09,30,07,47,995.23
2013,09,30,07,48,995.26
2013,09,30,07,49,995.26
2013,09,30,07,50,995.23
2013,09,30,07,51,995.29
2013,09,30,07,52,995.33
2013,09,30,07,53,995.33
2013,09,30,07,54,995.33
2013,09,30,07,55,995.40
2013,09,30,07,56,995.40
2013,09,30,07,57,995.46
2013,09,30,07,58,995.47
2013,09,30,07,59,995.56
2013,09,30,08,00,995.60
2013,09,30,08,01,995.56
2013,09,30,08,02,995.53
2013,09,30,08,03,995.63
2013,09,30,08,04,995.67
2013,09,30,08,05,995.67
2013,09,30,08,06,995.70
2013,09,30,08,07,995.73
2013,09,30,08,08,995.73
2013,09,30,08,09,995.70
2013,09,30,08,10,995.77
2013,09,30,08,11,995.77
2013,09,30,08,12,995.84
2013,09,30,08,13,995.80
2013,09,30,08,14,995.87
2013,09,30,08,15,995.94
2013,09,30,08,16,995.90
2013,09,30,08,17,995.94
2013,09,30,08,18,996.01
2013,09,30,08,19,995.90
2013,09,30,08,20,995.90
2013,09,30,08,21,995.94
2013,09,30,08,22,995.94
2013,09,30,08,23,995.97
2013,09,30,08,24,995.95
2013,09,30,08,25,996.04
2013,09,30,08,26,995.97
2013,09,30,08,27,995.97
2013,09,30,08,28,996.11
2013,09,30,08,29,996.11
2013,09,30,08,30,996.14
2013,09,30,08,31,996.17
2013,09,30,08,32,996.21
2013,09,30,08,33,996.21
2013,09,30,08,34,996.21
2013,09,30,08,35,996.17
2013,09,30,08,36,996.28
2013,09,30,08,37,996.28
2013,09,30,08,38,996.21
2013,09,30,08,39,996.28
2013,09,30,08,40,996.24
2013,09,30,08,41,996.22
2013,09,30,08,42,996.31
2013,09,30,08,43,996.34
2013,09,30,08,44,996.41
2013,09,30,08,45,996.51
2013,09,30,08,46,996.58
2013,09,30,08,47,996.65
2013,09,30,08,48,996.72
2013,09,30,08,49,996.72
2013,09,30,08,50,996.75
2013,09,30,08,51,996.72
2013,09,30,08,52,996.75
2013,09,30,08,53,996.82
2013,09,30,08,54,996.75
2013,09,30,08,55,996.82
2013,09,30,08,56,996.82
2013,09,30,08,57,996.85
2013,09,30,08,58,996.85
2013,09,30,08,59,996.89
2013,09,30,09,00,996.89
2013,09,30,09,01,996.89
2013,09,30,09,02,996.95
2013,09,30,09,03,996.95
2013,09,30,09,04,996.92
2013,09,30,09,05,996.95
2013,09,30,09,06,996.99
2013,09,30,09,07,997.09
2013,09,30,09,08,996.99
2013,09,30,09,09,996.99
2013,09,30,09,10,997.02
2013,09,30,09,11,997.09
2013,09,30,09,12,997.12
2013,09,30,09,13,997.12
2013,09,30,09,14,997.16
2013,09,30,09,15,997.22
2013,09,30,09,16,997.16
2013,09,30,09,17,997.16
2013,09,30,09,18,997.09
2013,09,30,09,19,997.16
2013,09,30,09,20,997.12
2013,09,30,09,21,997.22
2013,09,30,09,22,997.19
2013,09,30,09,23,997.19
2013,09,30,09,24,997.22
2013,09,30,09,25,997.26
2013,09,30,09,26,997.29
2013,09,30,09,27,997.33
2013,09,30,09,28,997.36
2013,09,30,09,29,997.36
2013,09,30,09,30,997.46
2013,09,30,09,31,997.50
2013,09,30,09,32,997.53
2013,09,30,09,33,997.60
2013,09,30,09,34,997.66
2013,09,30,09,35,997.60
2013,09,30,09,36,997.63
2013,09,30,09,37,997.66
2013,09,30,09,38,997.66
2013,09,30,09,39,997.60
2013,09,30,09,40,997.60
2013,09,30,09,41,997.63
2013,09,30,09,42,997.63
2013,09,30,09,43,997.70
2013,09,30,09,44,997.53
2013,09,30,09,45,997.66
2013,09,30,09,46,997.63
2013,09,30,09,47,997.60
2013,09,30,09,48,997.80
2013,09,30,09,49,997.70
2013,09,30,09,50,997.83
2013,09,30,09,51,997.90
2013,09,30,09,52,997.90
2013,09,30,09,53,997.97
2013,09,30,09,54,998.14
2013,09,30,09,55,998.10
2013,09,30,09,56,998.10
2013,09,30,09,57,998.07
2013,09,30,09,58,998.13
2013,09,30,09,59,997.97
2013,09,30,10,00,997.90
2013,09,30,10,01,997.90
2013,09,30,10,02,997.79
2013,09,30,10,03,997.70
2013,09,30,10,04,997.70
2013,09,30,10,05,997.80
2013,09,30,10,06,997.90
2013,09,30,10,07,997.90
2013,09,30,10,08,997.87
2013,09,30,10,09,997.90
2013,09,30,10,10,997.90
2013,09,30,10,11,997.97
2013,09,30,10,12,997.97
2013,09,30,10,13,998.04
2013,09,30,10,14,998.04
2013,09,30,10,15,998.07
2013,09,30,10,16,998.10
2013,09,30,10,17,998.07
2013,09,30,10,18,998.07
2013,09,30,10,19,998.00
2013,09,30,10,20,997.95
2013,09,30,10,21,998.10
2013,09,30,10,22,998.14
2013,09,30,10,23,998.17
2013,09,30,10,24,998.17
2013,09,30,10,25,998.10
2013,09,30,10,26,998.17
2013,09,30,10,27,998.14
2013,09,30,10,28,998.14
2013,09,30,10,29,998.04
2013,09,30,10,30,998.07
2013,09,30,10,31,998.08
2013,09,30,10,32,998.17
2013,09,30,10,33,998.17
2013,09,30,10,34,998.04
2013,09,30,10,35,998.10
2013,09,30,10,36,998.14
2013,09,30,10,37,998.15
2013,09,30,10,38,998.24
2013,09,30,10,39,998.34
2013,09,30,10,40,998.31
2013,09,30,10,41,998.31
2013,09,30,10,42,998.34
2013,09,30,10,43,998.41
2013,09,30,10,44,998.53
2013,09,30,10,45,998.44
2013,09,30,10,46,998.58
2013,09,30,10,47,998.75
2013,09,30,10,48,998.75
2013,09,30,10,49,998.68
2013,09,30,10,50,998.65
2013,09,30,10,51,998.71
2013,09,30,10,52,998.77
2013,09,30,10,53,998.65
2013,09,30,10,54,998.68
2013,09,30,10,55,998.78
2013,09,30,10,56,998.75
2013,09,30,10,57,998.75
2013,09,30,10,58,998.65
2013,09,30,10,59,998.78
2013,09,30,11,00,998.78
2013,09,30,11,01,998.71
2013,09,30,11,02,998.68
2013,09,30,11,03,998.78
2013,09,30,11,04,998.54
2013,09,30,11,05,998.65
2013,09,30,11,06,998.71
2013,09,30,11,07,998.68
2013,09,30,11,08,998.65
2013,09,30,11,09,998.72
2013,09,30,11,10,998.82
2013,09,30,11,11,998.75
2013,09,30,11,12,998.92
2013,09,30,11,13,998.95
2013,09,30,11,14,998.95
2013,09,30,11,15,999.02
2013,09,30,11,16,999.02
2013,09,30,11,17,999.05
2013,09,30,11,18,999.05
2013,09,30,11,19,999.02
2013,09,30,11,20,999.09
2013,09,30,11,21,999.12
2013,09,30,11,22,999.09
2013,09,30,11,23,999.09
2013,09,30,11,24,999.15
2013,09,30,11,25,999.15
2013,09,30,11,26,999.12
2013,09,30,11,27,999.15
2013,09,30,11,28,999.12
2013,09,30,11,29,999.12
2013,09,30,11,30,999.15
2013,09,30,11,31,999.15
2013,09,30,11,32,999.19
2013,09,30,11,33,999.29
2013,09,30,11,34,999.26
2013,09,30,11,35,999.22
2013,09,30,11,36,999.26
2013,09,30,11,37,999.22
2013,09,30,11,38,999.26
2013,09,30,11,39,999.29
2013,09,30,11,40,999.26
2013,09,30,11,41,999.32
2013,09,30,11,42,999.43
2013,09,30,11,43,999.39
2013,09,30,11,44,999.39
2013,09,30,11,45,999.43
2013,09,30,11,46,999.46
2013,09,30,11,47,999.43
2013,09,30,11,48,999.46
2013,09,30,11,49,999.53
2013,09,30,11,50,999.49
2013,09,30,11,51,999.46
2013,09,30,11,52,999.43
2013,09,30,11,53,999.39
2013,09,30,11,54,999.32
2013,09,30,11,55,999.39
2013,09,30,11,56,999.43
2013,09,30,11,57,999.46
2013,09,30,11,58,999.36
2013,09,30,11,59,999.39
2013,09,30,12,00,999.43
2013,09,30,12,01,999.46
2013,09,30,12,02,999.49
2013,09,30,12,03,999.53
2013,09,30,12,04,999.49
2013,09,30,12,05,999.56
2013,09,30,12,06,999.63
2013,09,30,12,07,999.66
2013,09,30,12,08,999.71
2013,09,30,12,09,999.87
2013,09,30,12,10,999.83
2013,09,30,12,11,999.83
2013,09,30,12,12,999.87
2013,09,30,12,13,999.87
2013,09,30,12,14,999.80
2013,09,30,12,15,999.90
2013,09,30,12,16,999.87
2013,09,30,12,17,999.87
2013,09,30,12,18,999.87
2013,09,30,12,19,999.90
2013,09,30,12,20,999.93
2013,09,30,12,21,999.90
2013,09,30,12,22,999.91
2013,09,30,12,23,1000.00
2013,09,30,12,24,999.93
2013,09,30,12,25,999.93
2013,09,30,12,26,1000.00
2013,09,30,12,27,999.93
2013,09,30,12,28,999.97
2013,09,30,12,29,1000.00
2013,09,30,12,30,1000.00
2013,09,30,12,31,999.97
2013,09,30,12,32,1000.03
2013,09,30,12,33,1000.00
2013,09,30,12,34,1000.07
2013,09,30,12,35,1000.10
2013,09,30,12,36,1000.14
2013,09,30,12,37,1000.14
2013,09,30,12,38,1000.14
2013,09,30,12,39,1000.14
2013,09,30,12,40,1000.20
2013,09,30,12,41,1000.14
2013,09,30,12,42,1000.17
2013,09,30,12,43,1000.20
2013,09,30,12,44,1000.17
2013,09,30,12,45,1000.20
2013,09,30,12,46,1000.20
2013,09,30,12,47,1000.20
2013,09,30,12,48,1000.24
2013,09,30,12,49,1000.20
2013,09,30,12,50,1000.20
2013,09,30,12,51,1000.24
2013,09,30,12,52,1000.24
2013,09,30,12,53,1000.24
2013,09,30,12,54,1000.24
2013,09,30,12,55,1000.20
2013,09,30,12,56,1000.20
2013,09,30,12,57,1000.14
2013,09,30,12,58,1000.14
2013,09,30,12,59,1000.17
2013,09,30,13,00,1000.10
2013,09,30,13,01,1000.20
2013,09,30,13,02,1000.24
2013,09,30,13,03,1000.24
2013,09,30,13,04,1000.24
2013,09,30,13,05,1000.24
2013,09,30,13,06,1000.27
2013,09,30,13,07,1000.31
2013,09,30,13,08,1000.31
2013,09,30,13,09,1000.31
2013,09,30,13,10,1000.37
2013,09,30,13,11,1000.37
2013,09,30,13,12,1000.31
2013,09,30,13,13,1000.44
2013,09,30,13,14,1000.44
2013,09,30,13,15,1000.44
2013,09,30,13,16,1000.48
2013,09,30,13,17,1000.58
2013,09,30,13,18,1000.54
2013,09,30,13,19,1000.54
2013,09,30,13,20,1000.61
2013,09,30,13,21,1000.68
2013,09,30,13,22,1000.61
2013,09,30,13,23,1000.64
2013,09,30,13,24,1000.71
2013,09,30,13,25,1000.68
2013,09,30,13,26,1000.64
2013,09,30,13,27,1000.68
2013,09,30,13,28,1000.75
2013,09,30,13,29,1000.68
2013,09,30,13,30,1000.68
2013,09,30,13,31,1000.64
2013,09,30,13,32,1000.71
2013,09,30,13,33,1000.71
2013,09,30,13,34,1000.75
2013,09,30,13,35,1000.71
2013,09,30,13,36,1000.68
2013,09,30,13,37,1000.64
2013,09,30,13,38,1000.71
2013,09,30,13,39,1000.64
2013,09,30,13,40,1000.64
2013,09,30,13,41,1000.71
2013,09,30,13,42,1000.71
2013,09,30,13,43,1000.68
2013,09,30,13,44,1000.78
2013,09,30,13,45,1000.78
2013,09,30,13,46,1000.81
2013,09,30,13,47,1000.81
2013,09,30,13,48,1000.81
2013,09,30,13,49,1000.81
2013,09,30,13,50,1000.75
2013,09,30,13,51,1000.84
2013,09,30,13,52,1000.81
2013,09,30,13,53,1000.81
2013,09,30,13,54,1000.88
2013,09,30,13,55,1000.78
2013,09,30,13,56,1000.78
2013,09,30,13,57,1000.75
2013,09,30,13,58,1000.81
2013,09,30,13,59,1000.78
2013,09,30,14,00,1000.85
2013,09,30,14,01,1000.81
2013,09,30,14,02,1000.85
2013,09,30,14,03,1000.85
2013,09,30,14,04,1000.92
2013,09,30,14,05,1000.88
2013,09,30,14,06,1000.98
2013,09,30,14,07,1000.95
2013,09,30,14,08,1000.92
2013,09,30,14,09,1000.97
2013,09,30,14,10,1000.88
2013,09,30,14,11,1000.95
2013,09,30,14,12,1000.98
2013,09,30,14,13,1000.92
2013,09,30,14,14,1000.98
2013,09,30,14,15,1000.95
2013,09,30,14,16,1001.12
2013,09,30,14,17,1001.02
2013,09,30,14,18,1001.03
2013,09,30,14,19,1001.25
2013,09,30,14,20,1001.19
2013,09,30,14,21,1001.15
2013,09,30,14,22,1001.12
2013,09,30,14,23,1001.19
2013,09,30,14,24,1001.22
2013,09,30,14,25,1001.22
2013,09,30,14,26,1001.25
2013,09,30,14,27,1001.22
2013,09,30,14,28,1001.36
2013,09,30,14,29,1001.42
2013,09,30,14,30,1001.39
2013,09,30,14,31,1001.46
2013,09,30,14,32,1001.52
2013,09,30,14,33,1001.37
2013,09,30,14,34,1001.52
2013,09,30,14,35,1001.52
2013,09,30,14,36,1001.59
2013,09,30,14,37,1001.69
2013,09,30,14,38,1001.73
2013,09,30,14,39,1001.69
2013,09,30,14,40,1001.69
2013,09,30,14,41,1001.73
2013,09,30,14,42,1001.80
2013,09,30,14,43,1001.80
2013,09,30,14,44,1001.80
2013,09,30,14,45,1001.76
2013,09,30,14,46,1001.83
2013,09,30,14,47,1001.80
2013,09,30,14,48,1001.83
2013,09,30,14,49,1001.93
2013,09,30,14,50,1001.90
2013,09,30,14,51,1001.83
2013,09,30,14,52,1001.89
2013,09,30,14,53,1001.76
2013,09,30,14,54,1001.76
2013,09,30,14,55,1001.73
2013,09,30,14,56,1001.73
2013,09,30,14,57,1001.66
2013,09,30,14,58,1001.63
2013,09,30,14,59,1001.63
2013,09,30,15,00,1001.63
2013,09,30,15,01,1001.59
2013,09,30,15,02,1001.59
2013,09,30,15,03,1001.66
2013,09,30,15,04,1001.69
2013,09,30,15,05,1001.69
2013,09,30,15,06,1001.69
2013,09,30,15,07,1001.69
2013,09,30,15,08,1001.69
2013,09,30,15,09,1001.63
2013,09,30,15,10,1001.63
2013,09,30,15,11,1001.59
2013,09,30,15,12,1001.59
2013,09,30,15,13,1001.59
2013,09,30,15,14,1001.63
2013,09,30,15,15,1001.66
2013,09,30,15,16,1001.59
2013,09,30,15,17,1001.66
2013,09,30,15,18,1001.66
2013,09,30,15,19,1001.63
2013,09,30,15,20,1001.73
2013,09,30,15,21,1001.76
2013,09,30,15,22,1001.69
2013,09,30,15,23,1001.69
2013,09,30,15,24,1001.66
2013,09,30,15,25,1001.66
2013,09,30,15,26,1001.76
2013,09,30,15,27,1001.83
2013,09,30,15,28,1001.83
2013,09,30,15,29,1001.90
2013,09,30,15,30,1002.00
2013,09,30,15,31,1002.07
2013,09,30,15,32,1001.94
2013,09,30,15,33,1002.07
2013,09,30,15,34,1002.17
2013,09,30,15,35,1002.10
2013,09,30,15,36,1002.17
2013,09,30,15,37,1002.20
2013,09,30,15,38,1002.30
2013,09,30,15,39,1002.20
2013,09,30,15,40,1002.17
2013,09,30,15,41,1002.20
2013,09,30,15,42,1002.30
2013,09,30,15,43,1002.34
2013,09,30,15,44,1002.30
2013,09,30,15,45,1002.41
2013,09,30,15,46,1002.41
2013,09,30,15,47,1002.37
2013,09,30,15,48,1002.27
2013,09,30,15,49,1002.20
2013,09,30,15,50,1002.13
2013,09,30,15,51,1002.24
2013,09,30,15,52,1002.20
2013,09,30,15,53,1002.07
2013,09,30,15,54,1001.86
2013,09,30,15,55,1001.80
2013,09,30,15,56,1001.80
2013,09,30,15,57,1001.90
2013,09,30,15,58,1001.93
2013,09,30,15,59,1001.97
2013,09,30,16,00,1001.97
2013,09,30,16,01,1002.00
2013,09,30,16,02,1001.97
2013,09,30,16,03,1002.07
2013,09,30,16,04,1002.03
2013,09,30,16,05,1002.13
2013,09,30,16,06,1002.13
2013,09,30,16,07,1002.20
2013,09,30,16,08,1002.30
2013,09,30,16,09,1002.18
2013,09,30,16,10,1002.20
2013,09,30,16,11,1002.24
2013,09,30,16,12,1002.24
2013,09,30,16,13,1002.20
2013,09,30,16,14,1002.30
2013,09,30,16,15,1002.30
2013,09,30,16,16,1002.37
2013,09,30,16,17,1002.41
2013,09,30,16,18,1002.44
2013,09,30,16,19,1002.51
2013,09,30,16,20,1002.44
2013,09,30,16,21,1002.51
2013,09,30,16,22,1002.47
2013,09,30,16,23,1002.61
2013,09,30,16,24,1002.57
2013,09,30,16,25,1002.61
2013,09,30,16,26,1002.64
2013,09,30,16,27,1002.68
2013,09,30,16,28,1002.68
2013,09,30,16,29,1002.78